Regional Weather Roundup
Issued by NWS

Home | Current Version | Previous Version | Text Only | Print | Product List | Glossary Off
Versions: 1 2 3 4 5 6 7 8 9 10 11 12 13 14 15 16 17 18 19 20 21 22 23 24 25 26 27

000
ASUS45 KCYS 240510
RWRWY

WYOMING REGIONAL WEATHER ROUNDUP
NATIONAL WEATHER SERVICE CHEYENNE WY
1000 PM MST THU NOV 23 2017

NOTE:  "FAIR" INDICATES FEW OR NO CLOUDS BELOW 12,000 FEET
WITH NO SIGNIFICANT WEATHER AND/OR OBSTRUCTIONS TO VISIBILITY.

WYZ001-240600-
YELLOWSTONE NATIONAL PARK

CITY           SKY/WX    TMP DP  RH WIND       PRES   REMARKS
LK YELLOWSTONE   N/A     40  34  79 W12G23    29.97F WCI  33
W YELLOWSTONE  NOT AVBL

$$
WYZ002>013-054>058-071-098>099-240600-
NORTHERN WYOMING

CITY           SKY/WX    TMP DP  RH WIND       PRES   REMARKS
JACKSON        CLOUDY    47  38  71 S21G26      N/A
CODY           FAIR      57  31  37 SW9       29.78F
GREYBULL       FAIR      41  35  79 SE3       29.76F
WORLAND        FAIR      39  33  79 SW5       29.76F
SHERIDAN       FAIR      65  28  24 SW39G56   29.60F
BUFFALO        FAIR      63  22  20 SW36G51   29.67F
GILLETTE       FAIR      58  32  37 SW20G31   29.67F
HULETT         FAIR      54  34  47 SW10G16   29.67F
NEWCASTLE      FAIR      37  32  81 CALM      29.74S

$$
WYZ014>020-022>026-101>103-240600-
CENTRAL WYOMING

CITY           SKY/WX    TMP DP  RH WIND       PRES   REMARKS
BIG PINEY      MOCLDY    44  36  73 W10       30.08F
PINEDALE       CLOUDY    41  36  81 W8        30.09S
DUBOIS         DRIZZLE   41  36  81 W12G21    29.97S
LANDER         FAIR      54  35  48 SW21G29   29.89F
RIVERTON       FAIR      50  30  46 SW13G18   29.89F
CASPER         FAIR      55  35  47 SW24      29.88F
DOUGLAS        FAIR      57  38  48 W14       29.83F

$$
WYZ021-027>030-104>119-240600-
SOUTHERN WYOMING

CITY           SKY/WX    TMP DP  RH WIND       PRES   REMARKS
EVANSTON       FAIR      47  32  56 SW7       30.13F
KEMMERER       FAIR      43  34  70 W15G21    30.12S
FORT BRIDGER   FAIR      48  33  55 SW16      30.14F
ROCK SPRINGS   MOCLDY    48  34  58 W16       30.12F
DIXON          FAIR      43  32  65 W7        30.16S
RAWLINS        LGT RAIN  47  33  58 SW30G39   30.02F
SARATOGA       FAIR      50  32  50 S6G26     30.10F
LARAMIE        FAIR      48  29  47 W12       30.05F
CHEYENNE       FAIR      55  29  36 VRB6      29.94F
TORRINGTON     FAIR      64  36  35 W23G33    29.79S
PINE BLUFFS    FAIR      55  28  35 W8G20     29.90S

$$




USA.gov is the U.S. government's official web portal to all federal, state and local government web resources and services.